Time,TemperatureF,DewpointF,PressureIn,WindDirection,WindDirectionDegrees,WindSpeedMPH,WindSpeedGustMPH,Humidity,HourlyPrecipIn,Conditions,Clouds,dailyrainin,SoftwareType,DateUTC
2013-07-16 07:58:00,67.0,64.0,27.12,SSE,148,14.0,16.0,93,0.00,,,-99.99,,2013-07-16 12:58:00,
2013-07-16 08:03:00,67.0,64.0,27.12,SSE,164,14.0,16.0,93,0.00,,,-99.99,,2013-07-16 13:03:00,
2013-07-16 08:08:00,67.0,64.0,27.12,SE,144,14.0,17.0,92,0.00,,,-99.99,,2013-07-16 13:08:00,
2013-07-16 08:13:00,66.0,64.0,27.13,SSE,158,13.0,16.0,92,0.00,,,-99.99,,2013-07-16 13:13:00,
2013-07-16 08:18:00,67.0,64.0,27.13,SSE,151,13.0,16.0,92,0.00,,,-99.99,,2013-07-16 13:18:00,
2013-07-16 08:23:00,67.0,64.0,27.13,SSE,161,15.0,18.0,90,0.00,,,-99.99,,2013-07-16 13:23:00,
2013-07-16 08:28:00,67.0,64.0,27.13,SSE,161,16.0,18.0,90,0.00,,,-99.99,,2013-07-16 13:28:00,
2013-07-16 08:33:00,67.0,64.0,27.13,South,172,15.0,17.0,90,0.00,,,-99.99,,2013-07-16 13:33:00,
2013-07-16 08:38:00,67.0,64.0,27.13,SSE,161,16.0,18.0,90,0.00,,,-99.99,,2013-07-16 13:38:00,
2013-07-16 08:43:00,67.0,64.0,27.13,South,179,17.0,19.0,90,0.00,,,-99.99,,2013-07-16 13:43:00,
2013-07-16 08:48:00,67.0,64.0,27.13,SSE,164,17.0,19.0,92,0.00,,,-99.99,,2013-07-16 13:48:00,
2013-07-16 08:53:00,68.0,64.0,27.13,South,172,16.0,19.0,90,0.00,,,-99.99,,2013-07-16 13:53:00,
2013-07-16 08:58:00,68.0,64.0,27.14,South,172,18.0,21.0,91,0.00,,,-99.99,,2013-07-16 13:58:00,
2013-07-16 09:03:00,68.0,64.0,27.14,South,171,18.0,20.0,90,0.00,,,-99.99,,2013-07-16 14:03:00,
2013-07-16 09:08:00,69.0,66.0,27.14,SSE,157,16.0,20.0,89,0.00,,,-99.99,,2013-07-16 14:08:00,
2013-07-16 09:13:00,69.0,64.0,27.14,South,178,18.0,21.0,88,0.00,,,-99.99,,2013-07-16 14:13:00,
2013-07-16 09:18:00,69.0,66.0,27.14,South,180,16.0,19.0,89,0.00,,,-99.99,,2013-07-16 14:18:00,
2013-07-16 09:23:00,70.0,66.0,27.14,South,169,15.0,17.0,86,0.00,,,-99.99,,2013-07-16 14:23:00,
2013-07-16 09:28:00,70.0,66.0,27.15,SSE,161,16.0,18.0,86,0.00,,,-99.99,,2013-07-16 14:28:00,
2013-07-16 09:33:00,70.0,66.0,27.14,South,172,15.0,18.0,88,0.00,,,-99.99,,2013-07-16 14:33:00,
2013-07-16 09:38:00,70.0,66.0,27.15,SSE,168,16.0,18.0,86,0.00,,,-99.99,,2013-07-16 14:38:00,
2013-07-16 09:43:00,70.0,64.0,27.15,SSE,166,14.0,17.0,85,0.00,,,-99.99,,2013-07-16 14:43:00,
2013-07-16 09:48:00,70.0,64.0,27.15,South,169,14.0,17.0,85,0.00,,,-99.99,,2013-07-16 14:48:00,
2013-07-16 09:53:00,71.0,66.0,27.15,SSE,166,15.0,17.0,84,0.00,,,-99.99,,2013-07-16 14:53:00,
2013-07-16 09:58:00,71.0,66.0,27.15,South,175,14.0,16.0,84,0.00,,,-99.99,,2013-07-16 14:58:00,
2013-07-16 10:03:00,72.0,66.0,27.14,SSE,158,14.0,17.0,83,0.00,,,-99.99,,2013-07-16 15:03:00,
2013-07-16 10:08:00,72.0,66.0,27.15,South,169,14.0,16.0,83,0.00,,,-99.99,,2013-07-16 15:08:00,
2013-07-16 10:13:00,72.0,66.0,27.14,SSE,161,13.0,17.0,82,0.00,,,-99.99,,2013-07-16 15:13:00,
2013-07-16 10:18:00,72.0,66.0,27.14,South,171,14.0,17.0,81,0.00,,,-99.99,,2013-07-16 15:18:00,
2013-07-16 10:23:00,72.0,66.0,27.14,South,189,12.0,15.0,82,0.00,,,-99.99,,2013-07-16 15:23:00,
2013-07-16 10:28:00,72.0,66.0,27.14,South,183,14.0,17.0,81,0.00,,,-99.99,,2013-07-16 15:28:00,
2013-07-16 10:33:00,72.0,66.0,27.14,South,182,14.0,18.0,80,0.00,,,-99.99,,2013-07-16 15:33:00,
2013-07-16 10:38:00,72.0,64.0,27.14,South,180,17.0,19.0,79,0.00,,,-99.99,,2013-07-16 15:38:00,
2013-07-16 10:43:00,72.0,66.0,27.14,South,175,14.0,17.0,80,0.00,,,-99.99,,2013-07-16 15:43:00,
2013-07-16 10:48:00,73.0,66.0,27.14,South,173,14.0,17.0,81,0.00,,,-99.99,,2013-07-16 15:48:00,
2013-07-16 10:53:00,73.0,66.0,27.14,South,176,15.0,19.0,79,0.00,,,-99.99,,2013-07-16 15:53:00,
2013-07-16 10:58:00,74.0,66.0,27.14,SSW,209,14.0,17.0,75,0.00,,,-99.99,,2013-07-16 15:58:00,
2013-07-16 11:03:00,74.0,66.0,27.14,South,178,18.0,22.0,75,0.00,,,-99.99,,2013-07-16 16:03:00,
2013-07-16 11:08:00,75.0,66.0,27.14,SSE,168,19.0,22.0,74,0.00,,,-99.99,,2013-07-16 16:08:00,
2013-07-16 11:13:00,76.0,64.0,27.14,SSW,195,17.0,21.0,68,0.00,,,-99.99,,2013-07-16 16:13:00,
2013-07-16 11:18:00,76.0,66.0,27.14,South,172,19.0,22.0,71,0.00,,,-99.99,,2013-07-16 16:18:00,
2013-07-16 11:23:00,77.0,64.0,27.14,South,176,19.0,23.0,66,0.00,,,-99.99,,2013-07-16 16:23:00,
2013-07-16 11:28:00,76.0,64.0,27.14,South,172,15.0,17.0,69,0.00,,,-99.99,,2013-07-16 16:28:00,
2013-07-16 11:33:00,76.0,66.0,27.14,South,173,17.0,20.0,70,0.00,,,-99.99,,2013-07-16 16:33:00,
2013-07-16 11:38:00,76.0,66.0,27.15,South,179,19.0,21.0,70,0.00,,,-99.99,,2013-07-16 16:38:00,
2013-07-16 11:43:00,76.0,66.0,27.14,South,182,16.0,18.0,70,0.00,,,-99.99,,2013-07-16 16:43:00,
2013-07-16 11:48:00,76.0,64.0,27.14,South,189,15.0,17.0,69,0.00,,,-99.99,,2013-07-16 16:48:00,
2013-07-16 11:53:00,77.0,66.0,27.14,SSE,162,15.0,18.0,69,0.00,,,-99.99,,2013-07-16 16:53:00,
2013-07-16 11:58:00,77.0,66.0,27.14,SSW,204,16.0,19.0,68,0.00,,,-99.99,,2013-07-16 16:58:00,
2013-07-16 12:03:00,77.0,64.0,27.14,SSW,192,17.0,20.0,67,0.00,,,-99.99,,2013-07-16 17:03:00,
2013-07-16 12:08:00,77.0,66.0,27.14,SSW,196,17.0,19.0,68,0.00,,,-99.99,,2013-07-16 17:08:00,
2013-07-16 12:13:00,78.0,66.0,27.14,SSW,200,15.0,18.0,68,0.00,,,-99.99,,2013-07-16 17:13:00,
2013-07-16 12:18:00,78.0,66.0,27.14,SSW,193,15.0,19.0,68,0.00,,,-99.99,,2013-07-16 17:18:00,
2013-07-16 12:23:00,78.0,66.0,27.15,South,169,17.0,21.0,66,0.00,,,-99.99,,2013-07-16 17:23:00,
2013-07-16 12:28:00,79.0,66.0,27.14,South,183,16.0,21.0,65,0.00,,,-99.99,,2013-07-16 17:28:00,
2013-07-16 12:33:00,79.0,66.0,27.14,SSW,192,17.0,21.0,63,0.00,,,-99.99,,2013-07-16 17:33:00,
2013-07-16 12:38:00,79.0,66.0,27.14,SSW,192,13.0,17.0,64,0.00,,,-99.99,,2013-07-16 17:38:00,
2013-07-16 12:43:00,79.0,66.0,27.14,SSW,193,16.0,21.0,64,0.00,,,-99.99,,2013-07-16 17:43:00,
2013-07-16 12:48:00,80.0,66.0,27.14,SSW,199,16.0,19.0,61,0.00,,,-99.99,,2013-07-16 17:48:00,
2013-07-16 12:53:00,81.0,66.0,27.14,SSW,193,14.0,16.0,61,0.00,,,-99.99,,2013-07-16 17:53:00,
2013-07-16 12:58:00,81.0,66.0,27.13,South,186,16.0,18.0,61,0.00,,,-99.99,,2013-07-16 17:58:00,
2013-07-16 13:03:00,81.0,66.0,27.13,SW,221,15.0,18.0,60,0.00,,,-99.99,,2013-07-16 18:03:00,
2013-07-16 13:08:00,81.0,64.0,27.13,SSW,203,15.0,20.0,59,0.00,,,-99.99,,2013-07-16 18:08:00,
2013-07-16 13:13:00,82.0,66.0,27.13,SSW,192,15.0,19.0,59,0.00,,,-99.99,,2013-07-16 18:13:00,
2013-07-16 13:18:00,83.0,64.0,27.13,SSW,195,19.0,22.0,54,0.00,,,-99.99,,2013-07-16 18:18:00,
2013-07-16 13:23:00,83.0,66.0,27.13,SSW,193,15.0,20.0,57,0.00,,,-99.99,,2013-07-16 18:23:00,
2013-07-16 13:28:00,83.0,63.0,27.13,South,188,18.0,22.0,50,0.00,,,-99.99,,2013-07-16 18:28:00,
2013-07-16 13:33:00,84.0,64.0,27.13,SSW,197,17.0,19.0,51,0.00,,,-99.99,,2013-07-16 18:33:00,
2013-07-16 13:38:00,84.0,61.0,27.13,South,189,18.0,21.0,47,0.00,,,-99.99,,2013-07-16 18:38:00,
2013-07-16 13:43:00,84.0,66.0,27.13,South,180,17.0,22.0,54,0.00,,,-99.99,,2013-07-16 18:43:00,
2013-07-16 13:48:00,84.0,64.0,27.13,South,176,20.0,22.0,53,0.00,,,-99.99,,2013-07-16 18:48:00,
2013-07-16 13:53:00,84.0,64.0,27.13,South,171,17.0,22.0,51,0.00,,,-99.99,,2013-07-16 18:53:00,
2013-07-16 13:58:00,84.0,63.0,27.13,South,176,18.0,23.0,48,0.00,,,-99.99,,2013-07-16 18:58:00,
2013-07-16 14:03:00,84.0,64.0,27.13,SSE,152,16.0,21.0,53,0.00,,,-99.99,,2013-07-16 19:03:00,
2013-07-16 14:08:00,85.0,66.0,27.13,South,189,17.0,20.0,52,0.00,,,-99.99,,2013-07-16 19:08:00,
2013-07-16 14:13:00,85.0,64.0,27.13,SSE,165,19.0,28.0,50,0.00,,,-99.99,,2013-07-16 19:13:00,
2013-07-16 14:18:00,85.0,64.0,27.13,SE,141,16.0,22.0,51,0.00,,,-99.99,,2013-07-16 19:18:00,
2013-07-16 14:23:00,86.0,64.0,27.13,South,179,20.0,25.0,50,0.00,,,-99.99,,2013-07-16 19:23:00,
2013-07-16 14:28:00,85.0,64.0,27.12,South,182,16.0,22.0,51,0.00,,,-99.99,,2013-07-16 19:28:00,
2013-07-16 14:33:00,85.0,63.0,27.12,South,176,20.0,24.0,48,0.00,,,-99.99,,2013-07-16 19:33:00,
2013-07-16 14:38:00,86.0,66.0,27.12,SSW,192,19.0,22.0,52,0.00,,,-99.99,,2013-07-16 19:38:00,
2013-07-16 14:43:00,85.0,66.0,27.12,South,176,17.0,21.0,52,0.00,,,-99.99,,2013-07-16 19:43:00,
2013-07-16 14:48:00,86.0,66.0,27.12,SSE,154,16.0,20.0,52,0.00,,,-99.99,,2013-07-16 19:48:00,
2013-07-16 14:53:00,86.0,61.0,27.12,South,176,20.0,24.0,44,0.00,,,-99.99,,2013-07-16 19:53:00,
2013-07-16 14:58:00,86.0,66.0,27.12,SSE,166,19.0,23.0,51,0.00,,,-99.99,,2013-07-16 19:58:00,
2013-07-16 15:03:00,86.0,61.0,27.12,SE,145,19.0,22.0,44,0.00,,,-99.99,,2013-07-16 20:03:00,
2013-07-16 15:08:00,87.0,66.0,27.12,South,173,20.0,23.0,50,0.00,,,-99.99,,2013-07-16 20:08:00,
2013-07-16 15:13:00,86.0,66.0,27.12,South,171,19.0,24.0,51,0.00,,,-99.99,,2013-07-16 20:13:00,
2013-07-16 15:18:00,86.0,64.0,27.12,SSW,203,21.0,26.0,49,0.00,,,-99.99,,2013-07-16 20:18:00,
2013-07-16 15:28:00,85.0,66.0,27.12,South,185,20.0,23.0,52,0.00,,,-99.99,,2013-07-16 20:28:00,
2013-07-16 15:33:00,85.0,61.0,27.12,SSE,164,20.0,23.0,44,0.00,,,-99.99,,2013-07-16 20:33:00,
2013-07-16 15:38:00,86.0,66.0,27.12,SSW,193,20.0,24.0,53,0.00,,,-99.99,,2013-07-16 20:38:00,
2013-07-16 15:43:00,86.0,63.0,27.12,South,185,21.0,24.0,46,0.00,,,-99.99,,2013-07-16 20:43:00,
2013-07-16 15:48:00,86.0,63.0,27.12,South,172,21.0,25.0,45,0.00,,,-99.99,,2013-07-16 20:48:00,
2013-07-16 15:53:00,84.0,64.0,27.12,SSE,166,23.0,25.0,52,0.00,,,-99.99,,2013-07-16 20:53:00,
2013-07-16 15:58:00,83.0,64.0,27.12,South,175,19.0,24.0,55,0.00,,,-99.99,,2013-07-16 20:58:00,
2013-07-16 16:03:00,84.0,66.0,27.12,South,183,19.0,23.0,55,0.00,,,-99.99,,2013-07-16 21:03:00,
2013-07-16 16:08:00,85.0,63.0,27.12,SSE,164,20.0,25.0,48,0.00,,,-99.99,,2013-07-16 21:08:00,
2013-07-16 16:13:00,85.0,66.0,27.12,SE,130,21.0,26.0,54,0.00,,,-99.99,,2013-07-16 21:13:00,
2013-07-16 16:18:00,85.0,66.0,27.12,SSE,157,21.0,26.0,53,0.00,,,-99.99,,2013-07-16 21:18:00,
2013-07-16 16:23:00,85.0,57.0,27.12,SSE,166,19.0,24.0,39,0.00,,,-99.99,,2013-07-16 21:23:00,
2013-07-16 16:28:00,84.0,66.0,27.13,South,186,21.0,24.0,55,0.00,,,-99.99,,2013-07-16 21:28:00,
2013-07-16 16:33:00,83.0,59.0,27.13,SSE,162,23.0,27.0,45,0.00,,,-99.99,,2013-07-16 21:33:00,
2013-07-16 16:38:00,83.0,57.0,27.13,South,175,22.0,26.0,42,0.00,,,-99.99,,2013-07-16 21:38:00,
2013-07-16 16:43:00,82.0,59.0,27.13,South,173,22.0,25.0,47,0.00,,,-99.99,,2013-07-16 21:43:00,
2013-07-16 16:48:00,82.0,59.0,27.13,South,179,20.0,23.0,47,0.00,,,-99.99,,2013-07-16 21:48:00,
2013-07-16 16:53:00,82.0,63.0,27.13,SSE,164,20.0,23.0,53,0.00,,,-99.99,,2013-07-16 21:53:00,
2013-07-16 16:58:00,82.0,63.0,27.13,SSE,161,18.0,22.0,53,0.00,,,-99.99,,2013-07-16 21:58:00,
2013-07-16 17:03:00,82.0,64.0,27.13,South,178,19.0,21.0,57,0.00,,,-99.99,,2013-07-16 22:03:00,
2013-07-16 17:08:00,82.0,66.0,27.13,South,171,18.0,20.0,60,0.00,,,-99.99,,2013-07-16 22:08:00,
2013-07-16 17:13:00,83.0,66.0,27.13,SSE,164,20.0,23.0,56,0.00,,,-99.99,,2013-07-16 22:13:00,
2013-07-16 17:18:00,83.0,66.0,27.13,SSE,154,19.0,23.0,57,0.00,,,-99.99,,2013-07-16 22:18:00,
2013-07-16 17:23:00,83.0,66.0,27.13,SSE,168,18.0,21.0,58,0.00,,,-99.99,,2013-07-16 22:23:00,
2013-07-16 17:28:00,83.0,66.0,27.13,South,190,19.0,23.0,58,0.00,,,-99.99,,2013-07-16 22:28:00,
2013-07-16 17:33:00,82.0,66.0,27.13,South,173,19.0,21.0,59,0.00,,,-99.99,,2013-07-16 22:33:00,
2013-07-16 17:38:00,82.0,66.0,27.13,SSE,164,18.0,20.0,59,0.00,,,-99.99,,2013-07-16 22:38:00,
2013-07-16 17:43:00,82.0,59.0,27.14,SSE,161,20.0,23.0,46,0.00,,,-99.99,,2013-07-16 22:43:00,
2013-07-16 17:48:00,81.0,64.0,27.13,South,183,18.0,21.0,59,0.00,,,-99.99,,2013-07-16 22:48:00,
2013-07-16 17:53:00,81.0,66.0,27.13,South,178,17.0,20.0,60,0.00,,,-99.99,,2013-07-16 22:53:00,
2013-07-16 17:58:00,81.0,66.0,27.13,SSW,192,15.0,17.0,60,0.00,,,-99.99,,2013-07-16 22:58:00,
2013-07-16 18:03:00,83.0,63.0,27.13,South,190,18.0,22.0,51,0.00,,,-99.99,,2013-07-16 23:03:00,
2013-07-16 18:08:00,84.0,66.0,27.13,South,178,19.0,22.0,56,0.00,,,-99.99,,2013-07-16 23:08:00,
2013-07-16 18:13:00,85.0,64.0,27.13,SSE,152,20.0,23.0,50,0.00,,,-99.99,,2013-07-16 23:13:00,
2013-07-16 18:18:00,84.0,64.0,27.13,SSE,151,19.0,23.0,53,0.00,,,-99.99,,2013-07-16 23:18:00,
2013-07-16 18:23:00,83.0,64.0,27.13,SSE,166,18.0,20.0,52,0.00,,,-99.99,,2013-07-16 23:23:00,
2013-07-16 18:28:00,82.0,64.0,27.13,SSE,159,17.0,20.0,56,0.00,,,-99.99,,2013-07-16 23:28:00,
2013-07-16 18:33:00,81.0,64.0,27.13,South,182,17.0,21.0,59,0.00,,,-99.99,,2013-07-16 23:33:00,
2013-07-16 18:38:00,81.0,64.0,27.13,South,180,18.0,21.0,57,0.00,,,-99.99,,2013-07-16 23:38:00,
2013-07-16 18:43:00,81.0,64.0,27.13,South,179,17.0,20.0,58,0.00,,,-99.99,,2013-07-16 23:43:00,
2013-07-16 18:48:00,81.0,64.0,27.13,SSE,164,17.0,20.0,58,0.00,,,-99.99,,2013-07-16 23:48:00,
2013-07-16 18:53:00,81.0,64.0,27.13,South,176,18.0,20.0,58,0.00,,,-99.99,,2013-07-16 23:53:00,
2013-07-16 18:58:00,81.0,64.0,27.13,South,188,17.0,20.0,58,0.00,,,-99.99,,2013-07-16 23:58:00,
2013-07-16 19:03:00,82.0,64.0,27.13,SSE,161,16.0,19.0,56,0.00,,,-99.99,,2013-07-17 00:03:00,
2013-07-16 19:08:00,83.0,64.0,27.13,South,172,15.0,19.0,54,0.00,,,-99.99,,2013-07-17 00:08:00,
2013-07-16 19:13:00,83.0,66.0,27.13,South,189,18.0,20.0,57,0.00,,,-99.99,,2013-07-17 00:13:00,
2013-07-16 19:18:00,83.0,64.0,27.13,South,169,18.0,21.0,54,0.00,,,-99.99,,2013-07-17 00:18:00,
2013-07-16 19:23:00,83.0,66.0,27.13,SSE,155,17.0,21.0,58,0.00,,,-99.99,,2013-07-17 00:23:00,
2013-07-16 19:33:00,83.0,66.0,27.13,SSE,166,19.0,23.0,56,0.00,,,-99.99,,2013-07-17 00:33:00,
2013-07-16 19:38:00,83.0,66.0,27.13,SE,127,18.0,21.0,58,0.00,,,-99.99,,2013-07-17 00:38:00,
2013-07-16 19:43:00,82.0,66.0,27.13,SSE,157,18.0,24.0,58,0.00,,,-99.99,,2013-07-17 00:43:00,
2013-07-16 19:48:00,82.0,66.0,27.14,SSE,165,19.0,22.0,58,0.00,,,-99.99,,2013-07-17 00:48:00,
2013-07-16 19:53:00,81.0,66.0,27.14,SSE,165,16.0,19.0,60,0.00,,,-99.99,,2013-07-17 00:53:00,
2013-07-16 19:58:00,81.0,64.0,27.14,SSE,168,19.0,22.0,59,0.00,,,-99.99,,2013-07-17 00:58:00,
2013-07-16 20:03:00,80.0,64.0,27.14,SSE,166,18.0,21.0,59,0.00,,,-99.99,,2013-07-17 01:03:00,
2013-07-16 20:13:00,79.0,64.0,27.14,SSE,162,22.0,27.0,60,0.00,,,-99.99,,2013-07-17 01:13:00,
2013-07-16 20:18:00,78.0,64.0,27.14,SSE,158,19.0,24.0,62,0.00,,,-99.99,,2013-07-17 01:18:00,
2013-07-16 20:23:00,78.0,59.0,27.14,SSE,168,23.0,25.0,52,0.00,,,-99.99,,2013-07-17 01:23:00,
2013-07-16 20:28:00,78.0,64.0,27.14,South,183,21.0,25.0,64,0.00,,,-99.99,,2013-07-17 01:28:00,
2013-07-16 20:33:00,78.0,61.0,27.14,South,178,22.0,25.0,55,0.00,,,-99.99,,2013-07-17 01:33:00,
2013-07-16 20:38:00,77.0,63.0,27.15,South,182,22.0,25.0,60,0.00,,,-99.99,,2013-07-17 01:38:00,
2013-07-16 20:43:00,77.0,57.0,27.15,South,176,18.0,22.0,52,0.00,,,-99.99,,2013-07-17 01:43:00,
2013-07-16 20:48:00,76.0,64.0,27.15,South,182,17.0,21.0,68,0.00,,,-99.99,,2013-07-17 01:48:00,
2013-07-16 20:53:00,76.0,64.0,27.15,South,183,15.0,18.0,69,0.00,,,-99.99,,2013-07-17 01:53:00,
2013-07-16 20:58:00,75.0,64.0,27.16,South,186,17.0,20.0,69,0.00,,,-99.99,,2013-07-17 01:58:00,
2013-07-16 21:03:00,75.0,64.0,27.15,South,173,17.0,20.0,70,0.00,,,-99.99,,2013-07-17 02:03:00,
2013-07-16 21:08:00,74.0,64.0,27.16,South,186,15.0,19.0,72,0.00,,,-99.99,,2013-07-17 02:08:00,
2013-07-16 21:13:00,74.0,64.0,27.16,SSE,159,18.0,22.0,73,0.00,,,-99.99,,2013-07-17 02:13:00,
2013-07-16 21:18:00,73.0,64.0,27.16,South,173,16.0,20.0,73,0.00,,,-99.99,,2013-07-17 02:18:00,
2013-07-16 21:23:00,73.0,64.0,27.16,South,179,15.0,17.0,74,0.00,,,-99.99,,2013-07-17 02:23:00,
2013-07-16 21:28:00,73.0,64.0,27.16,South,183,14.0,18.0,75,0.00,,,-99.99,,2013-07-17 02:28:00,
2013-07-16 21:33:00,72.0,64.0,27.16,South,175,13.0,16.0,75,0.00,,,-99.99,,2013-07-17 02:33:00,
2013-07-16 21:38:00,72.0,64.0,27.16,South,175,11.0,15.0,77,0.00,,,-99.99,,2013-07-17 02:38:00,
2013-07-16 21:43:00,72.0,64.0,27.17,South,172,11.0,13.0,77,0.00,,,-99.99,,2013-07-17 02:43:00,
2013-07-16 22:03:00,71.0,64.0,27.18,South,171,12.0,14.0,81,0.00,,,-99.99,,2013-07-17 03:03:00,
2013-07-16 22:08:00,71.0,64.0,27.18,South,176,13.0,14.0,81,0.00,,,-99.99,,2013-07-17 03:08:00,
2013-07-16 22:13:00,71.0,64.0,27.18,South,173,12.0,17.0,81,0.00,,,-99.99,,2013-07-17 03:13:00,
2013-07-16 22:18:00,71.0,64.0,27.18,SSE,166,13.0,15.0,81,0.00,,,-99.99,,2013-07-17 03:18:00,
2013-07-16 22:23:00,71.0,64.0,27.18,SSE,165,14.0,16.0,82,0.00,,,-99.99,,2013-07-17 03:23:00,
2013-07-16 22:28:00,70.0,64.0,27.18,South,169,13.0,15.0,82,0.00,,,-99.99,,2013-07-17 03:28:00,
2013-07-16 22:33:00,70.0,64.0,27.18,South,175,14.0,16.0,82,0.00,,,-99.99,,2013-07-17 03:33:00,
2013-07-16 22:38:00,70.0,64.0,27.18,South,175,13.0,16.0,82,0.00,,,-99.99,,2013-07-17 03:38:00,
2013-07-16 22:43:00,70.0,64.0,27.18,South,178,13.0,15.0,82,0.00,,,-99.99,,2013-07-17 03:43:00,
2013-07-16 22:48:00,70.0,64.0,27.18,South,169,14.0,15.0,82,0.00,,,-99.99,,2013-07-17 03:48:00,
2013-07-16 22:53:00,70.0,64.0,27.19,South,190,14.0,17.0,81,0.00,,,-99.99,,2013-07-17 03:53:00,
2013-07-16 22:58:00,70.0,64.0,27.19,South,172,13.0,15.0,82,0.00,,,-99.99,,2013-07-17 03:58:00,
2013-07-16 23:03:00,70.0,64.0,27.19,South,176,12.0,14.0,82,0.00,,,-99.99,,2013-07-17 04:03:00,
2013-07-16 23:08:00,69.0,63.0,27.19,South,171,11.0,14.0,82,0.00,,,-99.99,,2013-07-17 04:08:00,
2013-07-16 23:13:00,69.0,63.0,27.19,South,171,11.0,13.0,82,0.00,,,-99.99,,2013-07-17 04:13:00,
2013-07-16 23:18:00,69.0,64.0,27.19,South,179,12.0,13.0,83,0.00,,,-99.99,,2013-07-17 04:18:00,
2013-07-16 23:23:00,69.0,64.0,27.19,South,171,11.0,13.0,83,0.00,,,-99.99,,2013-07-17 04:23:00,
2013-07-16 23:28:00,69.0,64.0,27.19,SSE,166,10.0,12.0,84,0.00,,,-99.99,,2013-07-17 04:28:00,
2013-07-16 23:33:00,68.0,63.0,27.19,SSE,164,9.0,11.0,84,0.00,,,-99.99,,2013-07-17 04:33:00,
2013-07-16 23:38:00,68.0,63.0,27.19,South,169,11.0,14.0,85,0.00,,,-99.99,,2013-07-17 04:38:00,
2013-07-16 23:43:00,68.0,63.0,27.19,South,172,11.0,13.0,84,0.00,,,-99.99,,2013-07-17 04:43:00,
2013-07-16 23:48:00,68.0,63.0,27.20,SSE,168,9.0,11.0,85,0.00,,,-99.99,,2013-07-17 04:48:00,
2013-07-16 23:53:00,68.0,63.0,27.20,SSE,164,9.0,10.0,85,0.00,,,-99.99,,2013-07-17 04:53:00,
2013-07-16 23:58:00,68.0,63.0,27.20,SSE,155,8.0,10.0,85,0.00,,,-99.99,,2013-07-17 04:58:00,